• In India
  • List of Countries
  • For 7 days
  • Water Temperature
  • Satellite Maps
  • Weather Map
  • Weather Widgets
  • user-avatar
    Login

    Hourly Weather Zaliznyachka

    Today, 17 November, Saturday

    Time Temperature Precipitation Wind Pressure Humidity
    00:00 -4°C° 0 mm 5 mps 762 mmHg 59%
    01:00 -3°C° 0 mm 4 mps 762 mmHg 62%
    02:00 -3°C° 0 mm 4 mps 762 mmHg 65%
    03:00 -3°C° 0 mm 4 mps 762 mmHg 66%
    04:00 -3°C° 0 mm 4 mps 762 mmHg 67%
    05:00 -3°C° 0 mm 4 mps 762 mmHg 68%
    06:00 -3°C° 0 mm 4 mps 762 mmHg 70%
    07:00 -3°C° 0 mm 4 mps 762 mmHg 71%
    08:00 -3°C° 0 mm 4 mps 762 mmHg 73%
    09:00 -3°C° 0 mm 4 mps 762 mmHg 73%
    10:00 -3°C° 0 mm 4 mps 762 mmHg 74%
    11:00 -2°C° 0 mm 4 mps 762 mmHg 74%
    12:00 -2°C° 0 mm 4 mps 762 mmHg 73%
    13:00 -1°C° 0 mm 4 mps 761 mmHg 72%
    14:00 -1°C° 0 mm 4 mps 761 mmHg 72%
    15:00 -1°C° 0 mm 3 mps 761 mmHg 71%
    16:00 -1°C° 0 mm 3 mps 761 mmHg 71%
    17:00 -1°C° 0 mm 3 mps 761 mmHg 71%
    18:00 -2°C° 0 mm 3 mps 761 mmHg 70%
    19:00 -2°C° 0 mm 2 mps 760 mmHg 70%
    20:00 -2°C° 0 mm 2 mps 760 mmHg 69%
    21:00 -2°C° 0 mm 2 mps 760 mmHg 69%
    22:00 -3°C° 0 mm 2 mps 760 mmHg 70%
    23:00 -3°C° 0 mm 2 mps 759 mmHg 70%

    Tomorrow, 18 November, Sunday

    Time Temperature Precipitation Wind Pressure Humidity
    00:00 -3°C° 0 mm 2 mps 759 mmHg 70%
    01:00 -4°C° 0 mm 2 mps 759 mmHg 70%
    02:00 -4°C° 0 mm 2 mps 759 mmHg 71%
    03:00 -4°C° 0 mm 2 mps 758 mmHg 71%
    04:00 -5°C° 0 mm 2 mps 758 mmHg 71%
    05:00 -5°C° 0 mm 2 mps 757 mmHg 72%
    06:00 -5°C° 0 mm 2 mps 757 mmHg 71%
    07:00 -3°C° 0 mm 1 mps 756 mmHg 70%
    08:00 -3°C° 0 mm 1 mps 756 mmHg 69%
    09:00 -1°C° 0 mm 1 mps 756 mmHg 64%
    10:00 0°C° 0 mm 1 mps 755 mmHg 59%
    11:00 +1°C° 0 mm 1 mps 755 mmHg 54%
    12:00 +1°C° 0 mm 1 mps 755 mmHg 53%
    13:00 +2°C° 0 mm 1 mps 754 mmHg 52%
    14:00 +2°C° 0 mm 1 mps 754 mmHg 50%
    15:00 +1°C° 0 mm 1 mps 754 mmHg 55%
    16:00 0°C° 0 mm 1 mps 753 mmHg 60%
    17:00 -1°C° 0 mm 1 mps 753 mmHg 64%
    18:00 -1°C° 0 mm 1 mps 753 mmHg 65%
    19:00 -1°C° 0 mm 1 mps 753 mmHg 66%
    20:00 -1°C° 0 mm 1 mps 753 mmHg 67%
    21:00 -2°C° 0 mm 1 mps 753 mmHg 66%
    22:00 -2°C° 0 mm 1 mps 753 mmHg 66%
    23:00 -2°C° 0 mm 1 mps 753 mmHg 66%

    Day after tomorrow, 19 November, Monday

    Time Temperature Precipitation Wind Pressure Humidity
    00:00 -2°C° 0 mm 1 mps 753 mmHg 66%
    01:00 -2°C° 0 mm 1 mps 753 mmHg 66%
    02:00 -2°C° 0 mm 1 mps 753 mmHg 66%
    03:00 -4°C° 0 mm 2 mps 752 mmHg 66%
    04:00 -4°C° 0 mm 2 mps 752 mmHg 67%
    05:00 -4°C° 0 mm 2 mps 752 mmHg 67%
    06:00 -4°C° 0 mm 2 mps 752 mmHg 67%
    07:00 -4°C° 0 mm 2 mps 752 mmHg 68%
    08:00 -5°C° 0 mm 3 mps 753 mmHg 68%
    09:00 -4°C° 0 mm 3 mps 753 mmHg 66%
    10:00 -1°C° 0 mm 3 mps 753 mmHg 64%
    11:00 0°C° 0 mm 3 mps 753 mmHg 62%
    12:00 0°C° 0 mm 3 mps 753 mmHg 64%
    13:00 0°C° 0 mm 3 mps 752 mmHg 67%
    14:00 0°C° 0 mm 3 mps 752 mmHg 69%
    15:00 -1°C° 0.2 mm 4 mps 752 mmHg 74%
    16:00 -2°C° 0.2 mm 4 mps 752 mmHg 79%
    17:00 -2°C° 0.2 mm 4 mps 752 mmHg 85%
    18:00 -2°C° 0.1 mm 4 mps 752 mmHg 86%
    19:00 -2°C° 0.1 mm 4 mps 752 mmHg 88%
    20:00 -2°C° 0.1 mm 4 mps 752 mmHg 89%
    21:00 -2°C° 0.2 mm 4 mps 752 mmHg 90%
    22:00 -2°C° 0.2 mm 4 mps 752 mmHg 92%
    23:00 -2°C° 0.2 mm 4 mps 752 mmHg 93%

    20 November, Tuesday

    Time Temperature Precipitation Wind Pressure Humidity
    00:00 -2°C° 0.2 mm 4 mps 752 mmHg 93%
    01:00 -2°C° 0.2 mm 4 mps 751 mmHg 94%
    02:00 -2°C° 0.2 mm 5 mps 751 mmHg 94%
    03:00 -2°C° 0.1 mm 5 mps 751 mmHg 94%
    04:00 -2°C° 0.1 mm 5 mps 751 mmHg 94%
    05:00 -2°C° 0.1 mm 5 mps 751 mmHg 93%
    06:00 -2°C° 0 mm 4 mps 751 mmHg 93%
    07:00 -2°C° 0 mm 4 mps 752 mmHg 93%
    08:00 -2°C° 0 mm 4 mps 752 mmHg 93%
    09:00 -2°C° 0 mm 4 mps 752 mmHg 93%
    10:00 -1°C° 0 mm 3 mps 752 mmHg 92%
    11:00 0°C° 0 mm 3 mps 753 mmHg 92%
    12:00 0°C° 0 mm 3 mps 753 mmHg 91%
    13:00 0°C° 0 mm 3 mps 753 mmHg 91%
    14:00 0°C° 0 mm 3 mps 752 mmHg 90%
    15:00 0°C° 0 mm 3 mps 752 mmHg 91%
    16:00 -1°C° 0 mm 3 mps 752 mmHg 92%
    17:00 -1°C° 0 mm 2 mps 752 mmHg 93%
    18:00 -1°C° 0 mm 2 mps 752 mmHg 93%
    19:00 -1°C° 0 mm 2 mps 752 mmHg 93%
    20:00 -1°C° 0 mm 2 mps 752 mmHg 93%
    21:00 -1°C° 0 mm 2 mps 752 mmHg 94%
    22:00 -1°C° 0 mm 2 mps 752 mmHg 94%
    23:00 -1°C° 0 mm 2 mps 752 mmHg 94%

    21 November, Wednesday

    Time Temperature Precipitation Wind Pressure Humidity
    00:00 -1°C° 0 mm 2 mps 752 mmHg 94%
    01:00 -1°C° 0 mm 2 mps 752 mmHg 94%
    02:00 +1°C° 0 mm 1 mps 751 mmHg 95%
    03:00 -1°C° 0 mm 2 mps 751 mmHg 95%
    04:00 -1°C° 0 mm 2 mps 751 mmHg 95%
    05:00 -1°C° 0 mm 3 mps 751 mmHg 95%
    06:00 -1°C° 0 mm 3 mps 751 mmHg 95%
    07:00 -1°C° 0 mm 3 mps 751 mmHg 95%
    08:00 -2°C° 0 mm 4 mps 750 mmHg 94%
    09:00 -1°C° 0 mm 4 mps 751 mmHg 94%
    10:00 -1°C° 0 mm 4 mps 751 mmHg 93%
    11:00 0°C° 0 mm 4 mps 751 mmHg 92%
    12:00 0°C° 0 mm 4 mps 751 mmHg 91%
    13:00 0°C° 0 mm 4 mps 751 mmHg 91%
    14:00 0°C° 0 mm 4 mps 751 mmHg 90%
    15:00 0°C° 0 mm 4 mps 751 mmHg 89%
    16:00 0°C° 0 mm 5 mps 751 mmHg 89%
    17:00 -1°C° 0 mm 5 mps 751 mmHg 88%
    18:00 -1°C° 0 mm 5 mps 752 mmHg 88%
    19:00 -1°C° 0 mm 5 mps 752 mmHg 87%
    20:00 -1°C° 0 mm 5 mps 752 mmHg 86%
    21:00 -2°C° 0 mm 5 mps 753 mmHg 86%
    22:00 -2°C° 0 mm 5 mps 753 mmHg 85%
    23:00 -2°C° 0 mm 5 mps 753 mmHg 85%

    22 November, Thursday

    Time Temperature Precipitation Wind Pressure Humidity
    00:00 -2°C° 0 mm 5 mps 753 mmHg 84%
    01:00 -2°C° 0 mm 4 mps 754 mmHg 83%
    02:00 -2°C° 0 mm 4 mps 754 mmHg 83%
    03:00 -3°C° 0 mm 4 mps 754 mmHg 83%
    04:00 -3°C° 0 mm 4 mps 754 mmHg 82%
    05:00 -3°C° 0 mm 4 mps 754 mmHg 82%
    06:00 -3°C° 0 mm 4 mps 755 mmHg 84%
    07:00 -4°C° 0 mm 4 mps 755 mmHg 85%
    08:00 -4°C° 0 mm 3 mps 756 mmHg 87%
    09:00 -4°C° 0 mm 3 mps 756 mmHg 83%
    10:00 -3°C° 0 mm 4 mps 756 mmHg 80%
    11:00 -2°C° 0 mm 4 mps 756 mmHg 76%
    12:00 -2°C° 0 mm 4 mps 756 mmHg 76%
    13:00 -2°C° 0 mm 4 mps 756 mmHg 75%
    14:00 -1°C° 0 mm 4 mps 756 mmHg 74%
    15:00 -1°C° 0 mm 3 mps 756 mmHg 79%
    16:00 -2°C° 0 mm 3 mps 757 mmHg 83%
    17:00 -4°C° 0 mm 3 mps 757 mmHg 88%
    18:00 -4°C° 0 mm 3 mps 757 mmHg 88%
    19:00 -5°C° 0 mm 3 mps 757 mmHg 89%
    20:00 -5°C° 0 mm 3 mps 757 mmHg 90%
    21:00 -5°C° 0 mm 3 mps 758 mmHg 89%
    22:00 -5°C° 0 mm 3 mps 758 mmHg 89%
    23:00 -4°C° 0 mm 2 mps 758 mmHg 89%
    Show more